Hourly Weather Ryabinec

Today, 14 April, Wednesday

Time Temperature Precipitation Wind Pressure Humidity
00:00 +11°C° 0.7 mm 1 mps 740 mmHg 96%
01:00 +11°C° 0.7 mm 1 mps 739 mmHg 97%
02:00 +11°C° 0 mm 1 mps 739 mmHg 98%
03:00 +10°C° 0.1 mm 2 mps 739 mmHg 98%
04:00 +9°C° 0.1 mm 2 mps 739 mmHg 98%
05:00 +9°C° 0.1 mm 2 mps 739 mmHg 98%
06:00 +9°C° 0 mm 2 mps 739 mmHg 97%
07:00 +9°C° 0 mm 2 mps 739 mmHg 95%
08:00 +9°C° 0 mm 2 mps 739 mmHg 94%
09:00 +9°C° 0 mm 2 mps 740 mmHg 92%
10:00 +9°C° 0 mm 2 mps 740 mmHg 89%
11:00 +9°C° 0 mm 3 mps 740 mmHg 87%
12:00 +8°C° 0 mm 3 mps 741 mmHg 88%
13:00 +7°C° 0 mm 3 mps 741 mmHg 89%
14:00 +7°C° 0 mm 3 mps 741 mmHg 90%
15:00 +5°C° 0 mm 3 mps 741 mmHg 91%
16:00 +5°C° 0 mm 3 mps 741 mmHg 91%
17:00 +4°C° 0 mm 3 mps 742 mmHg 92%
18:00 +4°C° 0 mm 3 mps 742 mmHg 93%
19:00 +3°C° 0 mm 3 mps 742 mmHg 94%
20:00 +3°C° 0 mm 3 mps 742 mmHg 95%
21:00 +3°C° 0 mm 3 mps 742 mmHg 95%
22:00 +3°C° 0 mm 3 mps 742 mmHg 95%
23:00 +3°C° 0 mm 3 mps 742 mmHg 95%

Tomorrow, 15 April, Thursday

Time Temperature Precipitation Wind Pressure Humidity
00:00 +3°C° 0.1 mm 3 mps 742 mmHg 95%
01:00 +3°C° 0.1 mm 3 mps 742 mmHg 94%
02:00 +3°C° 0.1 mm 3 mps 742 mmHg 93%
03:00 +3°C° 0.4 mm 4 mps 742 mmHg 92%
04:00 +3°C° 0.4 mm 4 mps 742 mmHg 91%
05:00 +1°C° 0.4 mm 4 mps 742 mmHg 90%
06:00 +3°C° 0.4 mm 4 mps 743 mmHg 90%
07:00 +3°C° 0.4 mm 4 mps 743 mmHg 91%
08:00 +3°C° 0.4 mm 4 mps 743 mmHg 92%
09:00 +3°C° 0.4 mm 4 mps 743 mmHg 92%
10:00 +3°C° 0.4 mm 4 mps 743 mmHg 92%
11:00 +3°C° 0.4 mm 4 mps 743 mmHg 92%
12:00 +2°C° 0.2 mm 5 mps 743 mmHg 90%
13:00 +3°C° 0.2 mm 5 mps 743 mmHg 89%
14:00 +3°C° 0.2 mm 5 mps 743 mmHg 88%
15:00 +3°C° 0.1 mm 5 mps 743 mmHg 87%
16:00 +3°C° 0.1 mm 5 mps 743 mmHg 87%
17:00 +3°C° 0.1 mm 5 mps 743 mmHg 86%
18:00 +3°C° 0 mm 5 mps 744 mmHg 87%
19:00 +3°C° 0 mm 5 mps 744 mmHg 87%
20:00 +3°C° 0 mm 5 mps 744 mmHg 87%
21:00 +3°C° 0 mm 5 mps 744 mmHg 88%
22:00 +3°C° 0 mm 5 mps 744 mmHg 88%
23:00 +2°C° 0 mm 5 mps 744 mmHg 88%

Day after tomorrow, 16 April, Friday

Time Temperature Precipitation Wind Pressure Humidity
00:00 +2°C° 0 mm 5 mps 744 mmHg 88%
01:00 +2°C° 0 mm 5 mps 744 mmHg 88%
02:00 +2°C° 0 mm 5 mps 744 mmHg 88%
03:00 +2°C° 0 mm 5 mps 744 mmHg 88%
04:00 +3°C° 0 mm 4 mps 744 mmHg 88%
05:00 +3°C° 0 mm 4 mps 744 mmHg 88%
06:00 +3°C° 0 mm 4 mps 744 mmHg 86%
07:00 +3°C° 0 mm 4 mps 744 mmHg 85%
08:00 +4°C° 0 mm 4 mps 744 mmHg 83%
09:00 +4°C° 0.1 mm 4 mps 744 mmHg 83%
10:00 +5°C° 0.1 mm 4 mps 744 mmHg 83%
11:00 +5°C° 0.1 mm 4 mps 745 mmHg 82%
12:00 +6°C° 0 mm 4 mps 745 mmHg 78%
13:00 +8°C° 0 mm 4 mps 745 mmHg 74%
14:00 +11°C° 0 mm 4 mps 745 mmHg 70%
15:00 +11°C° 0 mm 4 mps 745 mmHg 69%
16:00 +10°C° 0 mm 5 mps 745 mmHg 69%
17:00 +10°C° 0 mm 5 mps 745 mmHg 68%
18:00 +9°C° 0 mm 5 mps 745 mmHg 70%
19:00 +7°C° 0 mm 4 mps 745 mmHg 71%
20:00 +6°C° 0 mm 4 mps 746 mmHg 73%
21:00 +6°C° 0 mm 4 mps 746 mmHg 72%
22:00 +5°C° 0 mm 4 mps 746 mmHg 71%
23:00 +5°C° 0 mm 4 mps 746 mmHg 70%

17 April, Saturday

Time Temperature Precipitation Wind Pressure Humidity
00:00 +4°C° 0 mm 4 mps 746 mmHg 71%
01:00 +3°C° 0 mm 4 mps 747 mmHg 72%
02:00 +3°C° 0 mm 4 mps 747 mmHg 74%
03:00 +3°C° 0 mm 4 mps 747 mmHg 75%
04:00 +1°C° 0 mm 4 mps 747 mmHg 77%
05:00 +1°C° 0 mm 4 mps 747 mmHg 78%
06:00 +3°C° 0 mm 4 mps 747 mmHg 74%
07:00 +4°C° 0 mm 4 mps 748 mmHg 69%
08:00 +6°C° 0 mm 4 mps 748 mmHg 64%
09:00 +7°C° 0 mm 4 mps 748 mmHg 60%
10:00 +10°C° 0 mm 4 mps 748 mmHg 55%
11:00 +10°C° 0 mm 5 mps 748 mmHg 51%
12:00 +12°C° 0 mm 5 mps 748 mmHg 49%
13:00 +12°C° 0 mm 5 mps 748 mmHg 47%
14:00 +13°C° 0 mm 4 mps 748 mmHg 45%
15:00 +12°C° 0 mm 4 mps 748 mmHg 45%
16:00 +12°C° 0 mm 4 mps 748 mmHg 45%
17:00 +12°C° 0 mm 4 mps 748 mmHg 46%
18:00 +10°C° 0 mm 3 mps 748 mmHg 50%
19:00 +8°C° 0 mm 3 mps 748 mmHg 55%
20:00 +7°C° 0 mm 3 mps 748 mmHg 59%
21:00 +5°C° 0 mm 3 mps 748 mmHg 62%
22:00 +5°C° 0 mm 3 mps 749 mmHg 65%
23:00 +4°C° 0 mm 3 mps 749 mmHg 68%

18 April, Sunday

Time Temperature Precipitation Wind Pressure Humidity
00:00 +3°C° 0 mm 3 mps 749 mmHg 71%
01:00 +3°C° 0 mm 3 mps 749 mmHg 74%
02:00 +2°C° 0 mm 3 mps 749 mmHg 77%
03:00 +2°C° 0 mm 3 mps 749 mmHg 78%
04:00 +1°C° 0 mm 3 mps 749 mmHg 78%
05:00 +1°C° 0 mm 3 mps 749 mmHg 79%
06:00 +3°C° 0 mm 3 mps 749 mmHg 71%
07:00 +5°C° 0 mm 3 mps 749 mmHg 63%
08:00 +6°C° 0 mm 4 mps 749 mmHg 54%
09:00 +8°C° 0 mm 4 mps 749 mmHg 49%
10:00 +10°C° 0 mm 4 mps 749 mmHg 44%
11:00 +12°C° 0 mm 4 mps 749 mmHg 38%
12:00 +12°C° 0 mm 4 mps 749 mmHg 37%
13:00 +13°C° 0 mm 4 mps 749 mmHg 35%
14:00 +14°C° 0 mm 3 mps 749 mmHg 34%
15:00 +13°C° 0 mm 3 mps 749 mmHg 36%
16:00 +13°C° 0 mm 3 mps 749 mmHg 39%
17:00 +13°C° 0 mm 3 mps 749 mmHg 41%
18:00 +12°C° 0 mm 2 mps 749 mmHg 49%
19:00 +9°C° 0 mm 2 mps 749 mmHg 56%
20:00 +7°C° 0 mm 2 mps 749 mmHg 64%
21:00 +6°C° 0 mm 2 mps 749 mmHg 66%
22:00 +6°C° 0 mm 2 mps 750 mmHg 69%
23:00 +5°C° 0 mm 2 mps 750 mmHg 71%

19 April, Monday

Time Temperature Precipitation Wind Pressure Humidity
00:00 +5°C° 0 mm 2 mps 750 mmHg 73%
01:00 +4°C° 0 mm 2 mps 750 mmHg 75%
02:00 +4°C° 0 mm 2 mps 750 mmHg 77%
03:00 +4°C° 0 mm 2 mps 750 mmHg 78%
04:00 +3°C° 0 mm 2 mps 750 mmHg 79%
05:00 +3°C° 0 mm 2 mps 750 mmHg 80%
06:00 +5°C° 0 mm 2 mps 751 mmHg 72%
07:00 +7°C° 0 mm 2 mps 751 mmHg 65%
08:00 +9°C° 0 mm 2 mps 751 mmHg 57%
09:00 +10°C° 0 mm 2 mps 751 mmHg 51%
10:00 +12°C° 0 mm 3 mps 751 mmHg 46%
11:00 +13°C° 0 mm 3 mps 751 mmHg 40%
12:00 +14°C° 0 mm 3 mps 751 mmHg 39%
13:00 +14°C° 0 mm 3 mps 750 mmHg 37%
14:00 +16°C° 0 mm 3 mps 750 mmHg 36%
15:00 +14°C° 0 mm 3 mps 750 mmHg 38%
16:00 +15°C° 0 mm 2 mps 750 mmHg 40%
17:00 +15°C° 0 mm 2 mps 750 mmHg 42%
18:00 +13°C° 0 mm 2 mps 750 mmHg 49%
19:00 +10°C° 0 mm 2 mps 750 mmHg 57%
20:00 +8°C° 0 mm 2 mps 750 mmHg 64%
21:00 +8°C° 0 mm 2 mps 750 mmHg 67%
22:00 +7°C° 0 mm 2 mps 750 mmHg 70%
23:00 +7°C° 0 mm 2 mps 750 mmHg 73%
Show more